Weather History for KGFL - November, 2013

Change the Weather History Date:

Wednesday, November 6, 2013

  Actual Average Record
Temperature  
Mean Temperature 46 °F 40 °F  
Max Temperature 59 °F 50 °F 70 °F (2005)
Min Temperature 33 °F 30 °F 16 °F (1951)
Degree Days  
Heating Degree Days 19 25  
Month to date heating degree days 143 145  
Since 1 July heating degree days 912 1000  
Cooling Degree Days 0 0  
Month to date cooling degree days 0 0  
Year to date cooling degree days 537 352  
Moisture  
Dew Point 40 °F    
Average Humidity 75    
Maximum Humidity 96    
Minimum Humidity 53    
Precipitation  
Precipitation 0.00 in 0.12 in 0.95 in (2007)
Month to date precipitation 0.77 0.68  
Year to date precipitation 30.68 33.38  
Sea Level Pressure  
Sea Level Pressure 30.22 in    
Wind  
Wind Speed 7 mph (South)    
Max Wind Speed 18 mph    
Max Gust Speed 25 mph    
Visibility 10 miles    
Events      
T = Trace of Precipitation, MM = Missing Value Source: NWS Daily Summary

Daily Weather History Graph

Daily Weather History Graph

Search for Another Location

Airport or City:

Trip Planner

Search our weather history database for the weather conditions in past years. The results will help you decide how hot, cold, wet, or windy it might be!

Date:

Astronomy

Nov. 06, 2013 Rise Set
Actual Time 6:36 AM EST 4:39 PM EST
Civil Twilight 6:06 AM EST 5:09 PM EST
Nautical Twilight 5:32 AM EST 5:43 PM EST
Astronomical Twilight 4:58 AM EST 6:16 PM EST
Moon 9:51 AM EST (11/6) 7:38 PM EST (11/6)
Length of Visible Light 11h 03m
Length of Day
10h 02m
Waxing Crescent, 13% of the Moon is Illuminated
Nov 6
Waxing Crescent
Nov 10
First Quarter
Nov 17
Full
Nov 25
Last Quarter
Dec 2
New

Hourly Weather History & Observations

Time (EST) Temp. Windchill Dew Point Humidity Pressure Visibility Wind Dir Wind Speed Gust Speed Precip Events Conditions
12:53 AM 37.0 °F - 33.1 °F 86% 30.45 in 10.0 mi Calm Calm - N/A   Clear
1:53 AM 37.9 °F - 34.0 °F 86% 30.45 in 10.0 mi Calm Calm - N/A   Clear
2:53 AM 35.1 °F - 32.0 °F 89% 30.43 in 10.0 mi Calm Calm - N/A   Clear
3:53 AM 34.0 °F - 32.0 °F 92% 30.43 in 10.0 mi Calm Calm - N/A   Clear
4:53 AM 36.0 °F - 34.0 °F 93% 30.41 in 10.0 mi Calm Calm - N/A   Mostly Cloudy
5:53 AM 37.0 °F - 35.1 °F 93% 30.38 in 10.0 mi Calm Calm - N/A   Mostly Cloudy
6:53 AM 37.9 °F - 35.1 °F 89% 30.38 in 10.0 mi Calm Calm - N/A   Overcast
7:53 AM 44.1 °F 41.5 °F 39.0 °F 82% 30.36 in 10.0 mi SSE 4.6 mph - N/A   Overcast
8:53 AM 46.9 °F - 39.9 °F 77% 30.34 in 10.0 mi SSW 5.8 mph - N/A   Overcast
9:53 AM 48.9 °F - 41.0 °F 74% 30.30 in 10.0 mi SSW 12.7 mph - N/A   Overcast
10:53 AM 52.0 °F - 43.0 °F 71% 30.28 in 10.0 mi SSW 5.8 mph 17.3 mph N/A   Scattered Clouds
11:53 AM 55.9 °F - 43.0 °F 62% 30.23 in 10.0 mi South 10.4 mph - N/A   Clear
12:53 PM 57.0 °F - 43.0 °F 59% 30.19 in 10.0 mi South 10.4 mph 19.6 mph N/A   Mostly Cloudy
1:53 PM 59.0 °F - 43.0 °F 55% 30.16 in 10.0 mi SSW 11.5 mph 20.7 mph N/A   Partly Cloudy
2:53 PM 59.0 °F - 43.0 °F 55% 30.15 in 10.0 mi South 16.1 mph 21.9 mph N/A   Clear
3:53 PM 57.9 °F - 43.0 °F 58% 30.14 in 10.0 mi South 18.4 mph 23.0 mph N/A   Clear
4:53 PM 55.0 °F - 43.0 °F 64% 30.11 in 10.0 mi South 10.4 mph 19.6 mph N/A   Clear
5:53 PM 54.0 °F - 42.1 °F 64% 30.10 in 10.0 mi South 6.9 mph - N/A   Clear
6:53 PM 53.1 °F - 43.0 °F 69% 30.07 in 10.0 mi SSW 5.8 mph - N/A   Clear
7:53 PM 53.1 °F - 43.0 °F 69% 30.04 in 10.0 mi South 9.2 mph - N/A   Clear
8:53 PM 53.1 °F - 43.0 °F 69% 30.02 in 10.0 mi South 6.9 mph - N/A   Clear
9:53 PM 54.0 °F - 44.1 °F 69% 30.00 in 10.0 mi SSW 12.7 mph - N/A   Scattered Clouds
10:53 PM 54.0 °F - 44.1 °F 69% 29.97 in 10.0 mi SSW 8.1 mph 16.1 mph N/A   Overcast
11:53 PM 54.0 °F - 44.1 °F 69% 29.94 in 10.0 mi SSW 8.1 mph - N/A   Mostly Cloudy